Location: Albury
(51.9000°N, 0.0833°E)
Time: 12:08:26
(UTC+00:00)

Daily predictions for brighter satellites

Satellite Brightness Start Highest point End
(mag) Time Altitude Azimuth Time Altitude Azimuth Time Altitude Azimuth
Cosmos 2360 Rocket 2.2 18:52:35 10° SSW 18:58:11 70° ESE 19:03:49 10° NE
ARGOS Delta rocket 4.2 18:53:26 10° SSE 18:58:26 54° ENE 19:03:12 10° N
Okean O Rocket 2.7 18:56:04 10° ESE 18:59:46 27° ENE 19:03:29 10° N
Cosmos 1340 3.0 18:58:01 10° SSE 19:00:58 32° E 19:03:57 10° NNE
USA 186 2.4 19:00:10 10° SE 19:03:08 37° ENE 19:06:10 10° N
Meteor PRIRODA 3.3 19:00:08 10° SSE 19:03:27 83° ENE 19:06:47 10° NNW
Resurs 01 Rocket 2.0 18:59:57 10° SE 19:04:10 45° ENE 19:08:25 10° N
Cosmos 2322 Rocket 2.3 19:01:21 10° SSW 19:07:04 86° WNW 19:12:49 10° NNE
Cosmos 1459 Rocket 4.4 19:01:23 10° SSW 19:07:23 69° WNW 19:13:28 10° N
Helios 1A 3.1 19:04:37 10° NNE 19:08:37 51° E 19:12:34 10° S
BlueWalker 3 1.9 19:08:00 10° WNW 19:11:47 90° N 19:15:32 10° ESE
NOSS 2-1 (E) 3.7 19:08:31 10° NW 19:11:57 48° NE 19:16:27 10° ESE
Cosmos 44 Rocket 3.2 19:07:23 10° NW 19:12:13 85° NE 19:16:55 10° SE
ACS3 Solar Sail 2.5 19:06:58 10° SE 19:12:48 39° ENE 19:18:39 10° N
Cosmos 2333 Rocket 2.3 19:09:18 10° SSW 19:15:04 85° ESE 19:20:53 10° NNE
Okean-O 3.9 19:12:29 10° ESE 19:15:59 24° ENE 19:19:30 10° N
SL-08 R/B 3.4 19:11:07 10° NNE 19:16:03 77° ESE 19:20:58 10° S
ATLAS 3B R/B 4.0 19:09:13 10° NW 19:16:38 47° WSW 19:23:55 10° S
SKYMED 3 4.4 19:13:14 10° NNE 19:17:22 72° ESE 19:21:29 10° S
Feng Yun 1-1 Rocket 4.5 19:12:16 10° SE 19:17:53 60° ENE 19:23:40 10° N
Cosmos 2219 Rocket 2.3 19:13:34 10° S 19:19:07 57° ESE 19:24:41 10° NE
Cosmos 1626 3.1 19:18:07 10° NNW 19:20:58 38° W 19:23:47 10° SSW
NOSS 2-1 (D) 3.5 19:18:31 10° NW 19:22:00 59° NE 19:26:16 12° ESE
Meteor 1-5 Rocket 4.2 19:17:01 10° S 19:22:38 80° E 19:28:29 10° NNE
BREEZE-M DEB (TANK) 3.0 19:21:59 10° SSW 19:23:45 23° SSE 19:25:16 14° ESE
CSL-04 Rocket 3.7 19:19:09 10° SSE 19:24:26 62° ENE 19:29:42 10° N
Cosmos 1842 3.8 19:21:15 10° N 19:24:36 34° ENE 19:27:54 10° SE
USA 229 DEB 4.3 19:18:53 10° NW 19:26:11 68° SW 19:34:10 10° SSE
USA 229 4.3 19:19:03 10° NW 19:26:21 68° SW 19:34:19 10° SSE
SL-16 R/B 3.4 19:21:50 10° WSW 19:27:17 46° NW 19:32:47 10° NNE
CZ-4B R/B 4.2 19:25:52 10° S 19:30:28 51° W 19:35:10 10° NNW
SJ-6B 3.6 19:27:07 10° S 19:30:40 48° W 19:34:12 10° NNW
Cosmos 1766 Rocket 3.9 19:28:46 10° SSE 19:32:53 44° E 19:37:04 10° NNE
Cosmos 1725 Rocket 4.5 19:28:45 10° SSW 19:34:53 66° WNW 19:41:04 10° N
Cosmos 2369 Rocket 4.2 19:31:29 10° NNW 19:35:01 16° NNE 19:38:31 10° ENE
USA 267 3.6 19:29:17 10° E 19:35:43 62° N 19:42:11 10° WNW
BREEZE-M R/B 3.8 19:32:22 10° W 19:36:26 71° S 19:49:01 11° E
Cosmos 2322 3.9 19:34:35 10° S 19:39:58 47° ESE 19:45:22 10° NE
USA 276 1.9 19:37:12 10° WSW 19:40:01 57° S 19:41:31 22° ESE
Cosmos 1066 Rocket 4.4 19:34:28 10° NNW 19:40:22 89° WSW 19:46:14 10° S
Cosmos 1400 Rocket 2.7 19:37:44 10° NNW 19:41:38 87° WSW 19:45:26 10° S
Cosmos 1707 2.7 19:42:44 10° N 19:46:13 49° ENE 19:48:44 17° SSE
Cosmos 1315 Rocket 4.1 19:43:22 10° N 19:46:39 24° ENE 19:48:17 19° E
PSLV R/B 4.0 19:44:58 17° SE 19:47:27 44° ENE 19:50:52 10° N
Cosmos 2333 4.5 19:42:38 10° SW 19:48:25 75° WNW 19:54:12 10° NNE
CZ-4 R/B 2.4 19:45:33 10° S 19:49:11 44° W 19:52:54 10° NNW
Cosmos 1726 1.7 19:47:15 10° SSW 19:50:02 68° W 19:52:52 10° N
Cosmos 1733 4.1 19:49:20 22° ESE 19:50:02 23° E 19:52:51 10° NE
Cosmos 1891 Rocket 4.5 19:44:13 10° S 19:50:07 58° E 19:56:10 10° NNE
KORONAS-FOTON 3.6 19:52:48 10° N 19:56:32 84° E 19:59:46 13° SSE
Lacrosse 4 Rocket 2.1 19:52:22 10° NW 19:56:38 55° WSW 20:00:26 13° SSE
Cosmos 1536 3.3 19:55:07 18° SSE 19:57:28 36° E 20:01:00 10° NNE
COSMOS 2428 2.8 19:53:29 10° S 19:59:00 53° ESE 20:04:35 10° NE
Cosmos 1818 3.5 19:53:38 10° SSW 19:59:02 65° SE 20:04:29 10° NE
USA 308 3.3 19:57:58 10° W 19:58:09 12° WSW 19:58:09 12° WSW
CSL-04 Debris 4.4 19:54:03 10° S 19:59:30 72° WSW 20:05:01 10° NNW
Nadezhda 4 Rocket 4.1 19:54:24 10° N 20:00:33 56° ENE 20:05:35 16° SSE
Cosmos 1356 Rocket 3.4 19:56:36 10° N 20:00:48 69° ENE 20:03:50 18° SSE
Meteor 1-4 Rocket 1.7 19:58:11 10° NNW 20:00:53 82° W 20:02:21 24° S
Cosmos 1943 Rocket 2.4 19:57:43 10° NNW 20:03:07 53° NE 20:06:27 23° ESE
Cosmos 1674 3.2 20:01:29 10° NNW 20:04:44 50° W 20:07:58 10° S
Cosmos 1328 Rocket 4.0 20:01:39 10° NNW 20:05:54 62° W 20:10:08 10° S
Cosmos 841 Rocket 4.2 20:01:38 10° SW 20:06:44 56° WNW 20:11:51 10° NNE
Meteor 1-14 Rocket 4.1 20:01:33 10° S 20:07:03 72° E 20:12:35 10° NNE
SL-14 R/B 4.5 20:05:25 10° NNE 20:08:32 23° ENE 20:09:04 23° E
Cosmos 1743 3.9 20:05:08 10° SSW 20:08:32 42° WNW 20:11:58 10° N
USA 59 Rocket 0.2 20:05:15 10° NW 20:08:55 67° SW 20:11:54 22° SSE
Cosmos 1513 Rocket 4.4 20:03:00 10° S 20:09:00 72° E 20:15:05 10° NNE
Terra 2.5 20:09:10 25° ESE 20:11:10 36° ENE 20:15:28 10° N
Cosmos 1464 Rocket 4.0 20:06:24 10° S 20:12:34 61° E 20:18:50 10° NNE
Meteor 1-11 Rocket 4.0 20:09:42 13° SSE 20:14:33 46° E 20:19:51 10° NNE
Cosmos 1125 Rocket 3.6 20:10:51 10° NNW 20:16:01 61° ENE 20:18:45 27° SE
Ariane Rocket 3.9 20:14:46 24° E 20:16:42 32° ENE 20:21:10 10° N
USA 290 2.2 20:15:22 10° NNW 20:18:38 82° WSW 20:19:43 39° SSE
SPOT 3 Rocket 4.4 20:17:15 25° E 20:19:12 33° ENE 20:23:46 10° N
Cosmos 2278 Rocket 2.2 20:13:41 10° NNW 20:19:24 90° SSE 20:22:58 24° SSE
ERS-1 Rocket 3.2 20:19:35 28° SE 20:21:59 52° ENE 20:26:52 10° N
BREEZE-M DEB (TANK) 3.8 20:19:01 10° W 20:22:05 69° S 20:26:06 23° E
CZ-4B R/B 4.2 20:17:36 10° S 20:22:52 46° W 20:28:05 10° NNW
Meteor 2-9 Rocket 4.4 20:20:43 23° SSE 20:23:43 45° E 20:28:51 10° NNE
USA 306 4.3 20:22:25 10° SSW 20:23:20 16° SSW 20:23:20 16° SSW
NOSS 2-1 (C) 4.1 20:21:50 10° NW 20:25:25 49° SW 20:27:52 24° SSE
SPOT 5 2.7 20:24:19 24° SSE 20:27:12 86° ENE 20:31:46 10° NNW
IRS-1A Rocket 4.3 20:25:48 25° SSE 20:29:14 69° ENE 20:34:57 10° NNW
Cosmos 2034 Rocket 4.0 20:26:34 17° SSE 20:31:21 57° E 20:37:23 10° NNE
Aureole 1 4.3 20:28:45 10° NNW 20:31:45 69° WSW 20:32:23 50° S
Okean 3 Rocket 3.5 20:28:41 10° S 20:33:11 89° W 20:37:40 10° N
Okean O Rocket 2.6 20:31:49 11° S 20:35:50 45° W 20:40:07 10° NNW
NOSS 0 Rocket 3.9 20:33:21 10° SSW 20:39:31 65° ESE 20:45:42 10° NE
Resurs 01 Rocket 3.7 20:37:07 10° SSW 20:40:48 25° W 20:44:29 10° NW
USA 215 3.7 20:35:47 10° ENE 20:41:45 36° SE 20:47:40 10° SSW
Cosmos 2360 Rocket 4.2 20:37:46 10° WSW 20:42:41 30° NW 20:47:37 10° NNE
ATLAS 2AS CENTAUR R/B 4.2 20:37:52 10° W 20:44:24 36° NNW 20:50:42 10° NE
Meteor 1-21 4.5 20:40:16 10° N 20:45:53 52° ENE 20:47:41 38° ESE
Cosmos 2228 Rocket 3.9 20:42:04 10° N 20:46:15 34° ENE 20:46:32 34° ENE
MOS 1 Rocket 3.4 20:45:58 32° S 20:48:21 84° WSW 20:53:36 10° NNW
BlueWalker 3 3.0 20:46:14 10° W 20:49:35 31° SW 20:49:46 31° SSW
Cosmos 2237 Rocket 2.2 20:46:17 17° S 20:50:33 55° ESE 20:56:03 10° NE
Cosmos 1515 Rocket 4.5 20:47:50 10° NNW 20:51:59 46° W 20:54:35 21° SSW
Okean-O 3.3 20:49:38 24° SSW 20:52:04 51° W 20:56:23 10° NNW
Cosmos 1814 Rocket 4.4 20:47:53 10° SW 20:53:09 65° WNW 20:58:25 10° NNE
Cosmos 1805 3.6 20:55:18 45° NE 20:55:18 45° NE 20:58:08 10° NNE
Aureole 3 Rocket 3.9 20:47:44 12° S 20:54:39 73° E 21:00:01 10° NNE
ACS3 Solar Sail 2.7 20:50:35 10° S 20:56:45 50° W 21:02:59 10° NNW
Sich 1 2.8 20:57:04 64° SE 20:57:29 70° E 21:01:47 10° NNE
CZ-4C R/B 3.9 20:55:43 10° NNE 20:58:28 40° NE 20:58:28 40° NE
Cosmos 2333 Rocket 4.4 20:55:15 10° W 21:00:04 27° NW 21:04:56 10° NNE
Cosmos 2219 Rocket 3.8 20:58:11 10° WSW 21:03:21 35° NW 21:08:33 10° NNE
Cosmos 2279 Rocket 4.4 21:06:50 39° ESE 21:07:27 40° E 21:13:12 10° NNE
BREEZE-M DEB (TANK) 3.7 20:50:56 10° W 21:08:52 76° S 21:10:46 44° ESE
Cosmos 1500 Rocket 3.6 21:11:22 53° SSW 21:12:21 79° W 21:16:45 10° N
IRS-1C Rocket 4.5 21:14:37 35° SSW 21:16:40 59° WSW 21:21:54 10° NNW
Cosmos 1743 Rocket 3.3 21:16:41 86° SSE 21:16:45 88° E 21:21:06 10° N
USA 267 3.2 21:16:20 45° SE 21:18:37 83° SSW 21:25:13 10° WNW
Cosmos 1980 3.6 21:13:32 10° SSW 21:19:13 89° ESE 21:24:58 10° NNE
Cosmos 2369 Rocket 2.7 21:15:03 10° NNW 21:20:33 45° NE 21:21:39 41° E
Cosmos 2298 Rocket 4.0 21:15:58 10° NNW 21:21:17 79° WSW 21:22:14 60° S
Cosmos 1315 Rocket 3.9 21:19:09 10° NNW 21:22:50 37° W 21:23:29 34° WSW
Spot 2 Rocket 3.6 21:21:59 53° SSW 21:23:04 71° WSW 21:28:07 10° NNW
NOSS 3-3 (A) 4.5 21:25:46 38° E 21:25:46 38° E 21:30:13 10° NE
Cosmos 2150 Rocket 4.0 21:21:12 10° NNW 21:26:23 73° WSW 21:27:08 61° SSW
Cosmos 1975 3.7 21:32:52 43° N 21:32:52 43° N 21:35:34 10° N
Cosmos 1570 Rocket 4.1 21:30:08 27° SW 21:33:04 73° WNW 21:38:22 10° NNE
COSMOS 2428 4.2 21:38:13 10° WSW 21:43:29 37° NW 21:48:49 10° NNE
NOSS 3-4 (A) 3.8 21:39:31 10° NW 21:46:08 74° NE 21:47:59 53° ESE
NOSS 3-4 (C) 3.8 21:39:37 10° NW 21:46:13 74° NE 21:48:05 52° ESE
Cosmos 1943 Rocket 3.3 21:41:47 10° NW 21:46:38 32° WSW 21:47:58 29° SW
Okean 1-7 4.0 21:42:36 10° N 21:45:42 41° NNE 21:45:42 41° NNE
SL-16 R/B 3.1 21:49:08 36° ENE 21:49:08 36° ENE 21:52:45 10° NE
Terra 3.0 21:47:52 32° WSW 21:48:45 35° W 21:53:05 10° NNW
Cosmos 158 Rocket 4.4 21:53:00 42° WSW 21:54:19 56° WNW 21:59:08 10° NNE
Cosmos 2266 Rocket 4.0 21:48:58 10° N 21:55:09 63° ENE 21:55:29 62° E
Ariane Rocket 3.7 21:54:54 43° WSW 21:55:29 45° W 22:00:23 10° NNW
Cosmos 2263 4.4 21:51:32 10° NNW 21:57:15 60° NE 21:57:25 59° ENE
USA 59 Rocket 2.7 21:56:43 10° W 21:58:10 11° WSW 21:58:17 11° WSW
SPOT 3 Rocket 4.2 21:57:52 44° WSW 21:58:28 46° W 22:03:25 10° NNW
Okean 3 4.4 21:57:25 10° NNW 22:00:28 45° NW 22:00:28 45° NW
Cosmos 1862 Rocket 4.3 21:57:27 10° NNW 22:01:03 52° NW 22:01:03 52° NW
Cosmos 2278 Rocket 4.2 21:58:59 10° WNW 22:02:41 18° W 22:04:48 15° SW
Cosmos 1634 Rocket 4.3 22:01:43 41° SW 22:03:51 63° WNW 22:10:10 10° N
Cosmos 1633 Rocket 4.1 22:07:15 40° N 22:07:15 40° N 22:10:06 10° N
Cosmos 1707 Rocket 4.5 22:02:44 10° NNW 22:06:27 45° WNW 22:06:27 45° WNW
MetOp-A 4.4 22:14:26 52° NW 22:14:26 52° NW 22:18:07 10° NNW
Cosmos 1655 Rocket 4.1 22:09:37 10° N 22:15:56 62° ENE 22:15:57 62° ENE
Cosmos 2142 Rocket 4.4 22:22:56 73° WSW 22:23:20 76° W 22:29:30 10° N
USA 215 3.1 22:18:41 10° ENE 22:25:17 87° SSE 22:31:52 10° WSW
Cosmos 773 Rocket 4.3 22:26:08 63° NW 22:26:08 63° NW 22:31:11 10° NNE
Cosmos 1656 Rocket 4.2 22:22:38 10° NW 22:27:40 52° W 22:27:40 52° W
ARIANE 5 R/B 3.9 22:34:11 37° N 22:34:11 37° N 22:36:52 10° NNW
Cosmos 2237 Rocket 3.6 22:29:44 10° WSW 22:34:53 35° NW 22:40:02 10° NNE
Cosmos 2297 4.3 22:30:55 10° NW 22:35:42 49° W 22:35:42 49° W
ATLAS 2AS CENTAUR R/B 4.2 22:30:52 10° NW 22:37:07 33° N 22:43:09 10° ENE
NOSS 3-3 (C) 4.2 22:56:53 56° WNW 22:57:43 62° NW 23:04:26 10° NE
USA 267 4.4 23:03:41 30° WSW 23:03:41 30° WSW 23:08:03 10° WNW
Cosmos 2369 Rocket 3.3 22:59:14 10° NW 23:03:25 37° W 23:03:25 37° W
ATLAS CENTAUR R/B 4.2 23:11:25 12° NNE 23:11:25 12° NNE 23:11:47 10° NNE
Cosmos 1607 4.4 23:28:33 58° WNW 23:29:05 60° NW 23:35:28 10° NE
Cosmos 1745 Rocket 4.5 23:23:34 10° N 23:29:08 53° NE 23:29:08 53° NE
SL-16 R/B 3.3 23:30:58 38° WNW 23:31:33 39° NW 23:36:53 10° NNE
Meteor 2-5 Rocket 4.4 23:30:56 10° NNW 23:35:40 52° NW 23:35:40 52° NW
